Salem, Oregon, United States (97301)
Lat: 44.94N, Lon: 123.03W
Wx Zone: ORZ007
Local Info
Past Weather Observations for Thursday, April 17, 2014

NOTE: This archive is for the closest National Weather Service station to Salem. Information may differ from the station used for current weather conditions.

Time Weather Temperature Dewpoint Humidity Pressure Winds Precip Visibility
23:56
Clear
45°F / 7°C 43°F / 6°C 93% 30.09 in
(1019 mb)
Calm - 10SM
22:56
Clear
45°F / 7°C 41°F / 5°C 87% 30.06 in
(1018 mb)
SSW 3.5 mph
(SSW 6 kph)
- 10SM
21:56
Clear
45°F / 7°C 39°F / 4°C 81% 30.04 in
(1017 mb)
S 4.6 mph
(S 7 kph)
- 10SM
20:56
Mostly Cloudy
46°F / 8°C 41°F / 5°C 82% 30.04 in
(1017 mb)
SSW 6.9 mph
(SSW 11 kph)
- 10SM
19:56
Partly Cloudy
48°F / 9°C 41°F / 5°C 76% 30.01 in
(1016 mb)
WNW 9.2 mph
(WNW 15 kph)
0.00 in
(0.00 mm)
10SM
19:20
Overcast
50°F / 10°C 43°F / 6°C 76% 29.98 in
(1015 mb)
W 10.4 mph
(W 17 kph)
0.00 in
(0.00 mm)
10SM
18:56
Overcast
Light Rain
50°F / 10°C 45°F / 7°C 82% 29.95 in
(1014 mb)
W 13.8 mph
(W 22 kph)
0.00 in
(0.00 mm)
9SM
18:36
Overcast
52°F / 11°C 46°F / 8°C 82% 29.95 in
(1014 mb)
WNW 15 mph
(WNW 24 kph)
- 10SM
18:14
Overcast
54°F / 12°C 50°F / 10°C 88% 29.92 in
(1013 mb)
SW 10.4 mph
(SW 17 kph)
- 10SM
17:56
Overcast
54°F / 12°C 52°F / 11°C 94% 29.89 in
(1012 mb)
S 16.1 mph
(S 26 kph)
0.00 in
(0.00 mm)
10SM
16:56
Overcast
Light Rain
54°F / 12°C 52°F / 11°C 94% 29.89 in
(1012 mb)
S 16.1 mph
(S 26 kph)
0.04 in
(1.02 mm)
5SM
16:24
Overcast
Light Rain
54°F / 12°C 52°F / 11°C 94% 29.89 in
(1012 mb)
S 18.4 mph
(S 30 kph)
0.02 in
(0.51 mm)
3SM
15:56
Overcast
Light Rain
55°F / 13°C 52°F / 11°C 88% 29.89 in
(1012 mb)
S 16.1 mph
(S 26 kph)
0.01 in
(0.25 mm)
8SM
15:43
Overcast
Light Rain
55°F / 13°C 52°F / 11°C 88% 29.89 in
(1012 mb)
S 17.3 mph
(S 28 kph)
0.00 in
(0.00 mm)
9SM
14:56
Overcast
Light Rain
55°F / 13°C 50°F / 10°C 82% 29.89 in
(1012 mb)
S 19.6 mph
(S 32 kph)
0.01 in
(0.25 mm)
7SM
14:52
Overcast
Light Rain
54°F / 12°C 50°F / 10°C 88% 29.89 in
(1012 mb)
SSE 17.3 mph
(SSE 28 kph)
0.00 in
(0.00 mm)
7SM
14:07
Overcast
55°F / 13°C 52°F / 11°C 88% 29.89 in
(1012 mb)
S 15 mph
(S 24 kph)
- 10SM
13:56
Overcast
55°F / 13°C 50°F / 10°C 82% 29.89 in
(1012 mb)
SSE 11.5 mph
(SSE 19 kph)
0.00 in
(0.00 mm)
10SM
13:03
Overcast
Light Rain
54°F / 12°C 50°F / 10°C 88% 29.92 in
(1013 mb)
S 15 mph
(S 24 kph)
0.00 in
(0.00 mm)
10SM
12:56
Overcast
Light Rain
54°F / 12°C 52°F / 11°C 94% 29.92 in
(1013 mb)
S 13.8 mph
(S 22 kph)
0.01 in
(0.25 mm)
10SM
12:08
Overcast
Light Rain
54°F / 12°C 52°F / 11°C 94% 29.92 in
(1013 mb)
S 9.2 mph
(S 15 kph)
0.00 in
(0.00 mm)
10SM
11:58
Overcast
Light Rain
54°F / 12°C 52°F / 11°C 94% 29.89 in
(1012 mb)
SSE 8.1 mph
(SSE 13 kph)
0.00 in
(0.00 mm)
10SM
11:56
Overcast
Light Rain
54°F / 12°C 52°F / 11°C 94% 29.92 in
(1013 mb)
S 9.2 mph
(S 15 kph)
0.09 in
(2.29 mm)
10SM
11:29
Overcast
Light Rain
54°F / 12°C 52°F / 11°C 94% 29.92 in
(1013 mb)
S 10.4 mph
(S 17 kph)
0.04 in
(1.02 mm)
8SM
11:13
Overcast
Light Rain
54°F / 12°C 52°F / 11°C 94% 29.92 in
(1013 mb)
S 12.7 mph
(S 20 kph)
0.01 in
(0.25 mm)
6SM
11:03
Overcast
Light Rain
54°F / 12°C 50°F / 10°C 88% 29.89 in
(1012 mb)
S 13.8 mph
(S 22 kph)
0.00 in
(0.00 mm)
7SM
10:56
Overcast
Light Rain
54°F / 12°C 50°F / 10°C 88% 29.89 in
(1012 mb)
S 12.7 mph
(S 20 kph)
0.07 in
(1.78 mm)
5SM
09:56
Overcast
Light Rain
52°F / 11°C 50°F / 10°C 94% 29.89 in
(1012 mb)
S 9.2 mph
(S 15 kph)
0.03 in
(0.76 mm)
8SM
08:56
Overcast
Light Rain
52°F / 11°C 48°F / 9°C 88% 29.89 in
(1012 mb)
SSE 10.4 mph
(SSE 17 kph)
0.05 in
(1.27 mm)
7SM
08:33
Overcast
Light Rain
52°F / 11°C 48°F / 9°C 88% 29.89 in
(1012 mb)
S 8.1 mph
(S 13 kph)
0.03 in
(0.76 mm)
5SM
08:10
Overcast
Light Rain
52°F / 11°C 48°F / 9°C 88% 29.89 in
(1012 mb)
SE 6.9 mph
(SE 11 kph)
0.01 in
(0.25 mm)
7SM
08:03
Overcast
Light Rain
52°F / 11°C 48°F / 9°C 88% 29.89 in
(1012 mb)
SE 6.9 mph
(SE 11 kph)
0.01 in
(0.25 mm)
7SM
07:56
Overcast
Light Rain
52°F / 11°C 48°F / 9°C 88% 29.92 in
(1013 mb)
SE 6.9 mph
(SE 11 kph)
0.05 in
(1.27 mm)
6SM
07:38
Overcast
Light Rain
52°F / 11°C 48°F / 9°C 88% 29.92 in
(1013 mb)
Calm 0.04 in
(1.02 mm)
5SM
07:34
Overcast
Light Rain
52°F / 11°C 48°F / 9°C 88% 29.92 in
(1013 mb)
Calm 0.04 in
(1.02 mm)
5SM
07:21
Overcast
Light Rain
52°F / 11°C 48°F / 9°C 88% 29.92 in
(1013 mb)
SW 3.5 mph
(SW 6 kph)
0.02 in
(0.51 mm)
5SM
07:14
Overcast
Light Rain
52°F / 11°C 48°F / 9°C 88% 29.92 in
(1013 mb)
Calm 0.02 in
(0.51 mm)
5SM
06:55
Overcast
Light Rain
52°F / 11°C 48°F / 9°C 88% 29.92 in
(1013 mb)
Calm 0.03 in
(0.76 mm)
5SM
06:54
Overcast
Light Rain
52°F / 11°C 48°F / 9°C 88% 29.92 in
(1013 mb)
Calm 0.03 in
(0.76 mm)
5SM
05:56
Overcast
Light Rain
50°F / 10°C 48°F / 9°C 94% 29.92 in
(1013 mb)
Calm 0.01 in
(0.25 mm)
4SM
04:56
Overcast
50°F / 10°C 48°F / 9°C 94% 29.92 in
(1013 mb)
WNW 3.5 mph
(WNW 6 kph)
- 10SM
03:56
Partly Cloudy
50°F / 10°C 48°F / 9°C 94% 29.92 in
(1013 mb)
Calm - 10SM
02:56
Mostly Cloudy
52°F / 11°C 48°F / 9°C 88% 29.95 in
(1014 mb)
SSE 3.5 mph
(SSE 6 kph)
- 10SM
01:56
Overcast
52°F / 11°C 48°F / 9°C 88% 29.95 in
(1014 mb)
SSE 3.5 mph
(SSE 6 kph)
0.00 in
(0.00 mm)
10SM
00:56
Overcast
Light Rain
52°F / 11°C 48°F / 9°C 88% 29.98 in
(1015 mb)
Calm 0.01 in
(0.25 mm)
10SM
Time Weather Temperature Dewpoint Humidity Pressure Winds Precip Visibility


Weather for websites

WeatherForYou.com, LLC is not responsible for any damages or problems caused by this service. Current weather conditions are obtained from the closest station including government and personal stations which may have varying degrees of accuracy. Weather forecasts are derived from the NOAA NDFD. Like all things, this site belongs to Jesus Christ... He just trusts me to maintain it. If you have any questions or comments email webmaster@weatherforyou.com

Copyright © 2014, WeatherForYou.com LLC. All rights reserved.